NOAA NWS Hourly Roundups by Site

Regional Weather Roundup for State College, PA

To Select Another Site Choose from List

Select Site:  

000
ASUS41 KCTP 221610
RWRCTP

REGIONAL WEATHER ROUNDUP
NATIONAL WEATHER SERVICE STATE COLLEGE PA
1100 AM EST FRI FEB 22 2019

Note: "fair" indicates few or no clouds below 12,000 feet with no
significant weather and/or obstructions to visibility.

* = STATION THAT DOES NOT REPORT PRECIPITATION /E.G. RAIN...SNOW...ETC/
    THUNDER OR FOG.

PAZ002>004-007>009-013>016-020>023-029>032-221700-
WESTERN PENNSYLVANIA

CITY           SKY/WX    TMP DP  RH WIND       PRES   REMARKS
ERIE           FAIR      35  24  64 N5        30.45R
MEADVILLE      FAIR      32  22  66 CALM      30.41R
FRANKLIN*      FAIR      33  23  66 VRB3      30.41R
NEW CASTLE     FAIR      34  23  64 NE3       30.43R
BEAVER COUNTY  NOT AVBL
BUTLER*        FAIR      34  24  67 E3        30.41S
PITTSBURGH INT CLOUDY    35  25  66 CALM      30.41R
PITTSBURGH     FAIR      36  26  67 VRB3      30.39S
INDIANA*       SUNNY     36  25  64 CALM      30.43S
LATROBE        CLOUDY    36  27  69 CALM      30.41S
WASHINGTON CO* FAIR      36  28  73 NE3       30.43S
$$

PAZ004>006-010>012-017>019-024>028-033>037-041-042-045-046-049>053-221700-
CENTRAL PENNSYLVANIA

CITY           SKY/WX    TMP DP  RH WIND       PRES   REMARKS
BRADFORD       FAIR      30  19  63 NE6       30.34S
DUBOIS         FAIR      32  20  61 CALM      30.37R
CLEARFIELD     FAIR      35  23  61 CALM      30.38S
JOHNSTOWN      FAIR      32  22  66 CALM      30.33S
ALTOONA        FAIR      35  24  64 CALM      30.38F
STATE COLLEGE  SUNNY     36  21  55 CALM      30.38S
WILLIAMSPORT   FAIR      39  20  46 NW9       30.40R
SELINSGROVE    FAIR      40  25  55 N6        30.42R
FT INDIANTOWN  CLOUDY    41  22  46 N7        30.40R
CAPITAL CITY   FAIR      42  23  46 NW9       30.41F
HARRISBURG     CLOUDY    42  26  53 NW10      30.40F
YORK           FAIR      40  25  55 NW7       30.40F
$$

PAZ038>040-043-044-047-048-054-055-060>062-067>071-221700-
EASTERN PENNSYLVANIA

CITY           SKY/WX    TMP DP  RH WIND       PRES   REMARKS
SCRANTON       PTSUNNY   36  21  54 N8G17     30.38R
MOUNT POCONO   PTSUNNY   30  21  69 NW14G21   30.33R
ALLENTOWN      FAIR      43  23  45 N10       30.39R
QUAKERTOWN*    SUNNY     41  25  52 VRB7      30.39R
READING        FAIR      43  26  51 W8        30.39R
LANCASTER      FAIR      43  26  51 NW8       30.39S
COATESVILLE    FAIR      41  27  56 N7        30.39F
POTTSTOWN      FAIR      42  24  49 NW8       30.40R
BLUE BELL      FAIR      41  27  56 NW5       30.40S
DOYLESTOWN     FAIR      43  24  47 NW9       30.38R
WILLOW GROVE   NOT AVBL
NORTH PHILA    FAIR      46  25  43 NW7       30.40R
PHILADELPHIA   CLOUDY    44  23  43 VRB7      30.39R
$$


 

View Past Reports for State College, PA.

Products Courtesy of NOAA-NWS
NWS Information Parsing Script by Ken True at Saratoga Weather - Script by SE Lincoln Weather.